Location: Aldenham
(51.6667°N, 0.3500°W)
Time: 07:29:42
(UTC+00:00)

Cosmos 2278 Rocket - Pass Details

Date: 18 November 2025
Orbit: 841 x 843 km, 71.0° (Epoch: 12 December)

Event Time Altitude Azimuth Distance (km) Brightness Sun altitude
Rises 19:20:32 0° 244° (WSW) 3,392 6.2 -29.6°
Reaches altitude 10° 19:23:15 10° 254° (WSW) 2,461 5.4 -30.0°
Maximum altitude 19:28:15 31° 317° (NW) 1,431 3.7 -30.8°
Enters shadow 19:30:30 24° 356° (N) 1,695 3.8 -31.1°
